When you browse on this site, cookies collect data to enhance your experience and personalize the content and advertising you see.
Visit our Privacy Policy to learn more. By continuing to use the site, you agree to this use of cookies and data.
  • In United Kingdom
  • List of Countries
  • For 7 days
  • Water Temperature
  • Satellite Maps
  • Weather Map
  • Weather Widgets
  • user-avatar
    Login

    Hourly Weather Leribe

    Today, 22 April, Monday

    Time Temperature Precipitation Wind Pressure Humidity
    00:00 +11°C° 0 mm 1 mps 631 mmHg 74%
    01:00 +10°C° 0 mm 2 mps 631 mmHg 74%
    02:00 +12°C° 0 mm 2 mps 631 mmHg 68%
    03:00 +12°C° 0 mm 1 mps 631 mmHg 69%
    04:00 +11°C° 0 mm 1 mps 631 mmHg 71%
    05:00 +11°C° 0 mm 1 mps 631 mmHg 72%
    06:00 +12°C° 0 mm 1 mps 631 mmHg 68%
    07:00 +13°C° 0 mm 1 mps 632 mmHg 63%
    08:00 +14°C° 0 mm 1 mps 632 mmHg 59%
    09:00 +16°C° 0.1 mm 2 mps 633 mmHg 55%
    10:00 +18°C° 0.1 mm 3 mps 633 mmHg 50%
    11:00 +19°C° 0.1 mm 4 mps 634 mmHg 46%
    12:00 +18°C° 0.4 mm 3 mps 633 mmHg 52%
    13:00 +17°C° 0.4 mm 3 mps 632 mmHg 59%
    14:00 +16°C° 0.4 mm 3 mps 632 mmHg 66%
    15:00 +16°C° 0.1 mm 3 mps 632 mmHg 66%
    16:00 +16°C° 0.1 mm 2 mps 632 mmHg 67%
    17:00 +16°C° 0.1 mm 2 mps 632 mmHg 67%
    18:00 +15°C° 0 mm 2 mps 631 mmHg 71%
    19:00 +14°C° 0 mm 2 mps 631 mmHg 76%
    20:00 +12°C° 0 mm 2 mps 630 mmHg 80%
    21:00 +13°C° 0 mm 2 mps 630 mmHg 78%
    22:00 +12°C° 0 mm 3 mps 631 mmHg 76%
    23:00 +12°C° 0 mm 3 mps 631 mmHg 74%

    Tomorrow, 23 April, Tuesday

    Time Temperature Precipitation Wind Pressure Humidity
    00:00 +13°C° 0.8 mm 2 mps 631 mmHg 77%
    01:00 +13°C° 0.8 mm 2 mps 631 mmHg 79%
    02:00 +13°C° 0.8 mm 2 mps 631 mmHg 82%
    03:00 +12°C° 5.3 mm 2 mps 631 mmHg 85%
    04:00 +12°C° 5.3 mm 2 mps 631 mmHg 87%
    05:00 +12°C° 5.3 mm 2 mps 631 mmHg 90%
    06:00 +11°C° 0.6 mm 3 mps 631 mmHg 87%
    07:00 +12°C° 0.6 mm 3 mps 631 mmHg 84%
    08:00 +13°C° 0.6 mm 3 mps 632 mmHg 81%
    09:00 +14°C° 0.5 mm 3 mps 632 mmHg 78%
    10:00 +16°C° 0.5 mm 3 mps 633 mmHg 74%
    11:00 +16°C° 0.5 mm 3 mps 633 mmHg 71%
    12:00 +17°C° 0.5 mm 3 mps 633 mmHg 70%
    13:00 +17°C° 0.5 mm 4 mps 632 mmHg 69%
    14:00 +18°C° 0.5 mm 4 mps 632 mmHg 67%
    15:00 +17°C° 1.1 mm 3 mps 632 mmHg 70%
    16:00 +17°C° 1.1 mm 3 mps 631 mmHg 73%
    17:00 +16°C° 1.1 mm 2 mps 631 mmHg 75%
    18:00 +16°C° 1.6 mm 2 mps 631 mmHg 79%
    19:00 +15°C° 1.6 mm 1 mps 631 mmHg 82%
    20:00 +14°C° 1.6 mm 1 mps 631 mmHg 85%
    21:00 +14°C° 1.4 mm 1 mps 632 mmHg 86%
    22:00 +14°C° 1.4 mm 1 mps 632 mmHg 86%
    23:00 +14°C° 1.4 mm 1 mps 632 mmHg 87%

    Day after tomorrow, 24 April, Wednesday

    Time Temperature Precipitation Wind Pressure Humidity
    00:00 +14°C° 2.1 mm 1 mps 632 mmHg 88%
    01:00 +14°C° 2.1 mm 1 mps 632 mmHg 88%
    02:00 +14°C° 2.1 mm 1 mps 631 mmHg 89%
    03:00 +13°C° 2.7 mm 1 mps 631 mmHg 90%
    04:00 +13°C° 2.7 mm 2 mps 631 mmHg 91%
    05:00 +13°C° 2.7 mm 2 mps 631 mmHg 92%
    06:00 +13°C° 1 mm 2 mps 631 mmHg 90%
    07:00 +14°C° 1 mm 2 mps 631 mmHg 89%
    08:00 +14°C° 1 mm 2 mps 632 mmHg 87%
    09:00 +16°C° 0.9 mm 2 mps 632 mmHg 79%
    10:00 +17°C° 0.9 mm 3 mps 632 mmHg 71%
    11:00 +18°C° 0.9 mm 3 mps 633 mmHg 64%
    12:00 +19°C° 0.4 mm 3 mps 632 mmHg 61%
    13:00 +19°C° 0.4 mm 3 mps 632 mmHg 58%
    14:00 +20°C° 0.4 mm 3 mps 631 mmHg 56%
    15:00 +19°C° 0.3 mm 2 mps 631 mmHg 58%
    16:00 +19°C° 0.3 mm 2 mps 631 mmHg 60%
    17:00 +19°C° 0.3 mm 1 mps 631 mmHg 62%
    18:00 +18°C° 0.5 mm 1 mps 631 mmHg 66%
    19:00 +16°C° 0.5 mm 1 mps 631 mmHg 71%
    20:00 +15°C° 0.5 mm 2 mps 631 mmHg 75%
    21:00 +14°C° 0.1 mm 2 mps 631 mmHg 76%
    22:00 +14°C° 0.1 mm 2 mps 631 mmHg 77%
    23:00 +14°C° 0.1 mm 2 mps 631 mmHg 78%

    25 April, Thursday

    Time Temperature Precipitation Wind Pressure Humidity
    00:00 +14°C° 0.2 mm 1 mps 631 mmHg 78%
    01:00 +14°C° 0.2 mm 1 mps 630 mmHg 77%
    02:00 +14°C° 0.2 mm 1 mps 630 mmHg 77%
    03:00 +13°C° 0.3 mm 1 mps 630 mmHg 78%
    04:00 +13°C° 0.3 mm 1 mps 630 mmHg 80%
    05:00 +12°C° 0.3 mm 1 mps 629 mmHg 82%
    06:00 +13°C° 0.1 mm 1 mps 630 mmHg 79%
    07:00 +14°C° 0.1 mm 2 mps 631 mmHg 76%
    08:00 +15°C° 0.1 mm 2 mps 631 mmHg 73%
    09:00 +17°C° 0.1 mm 3 mps 632 mmHg 68%
    10:00 +18°C° 0.1 mm 4 mps 632 mmHg 62%
    11:00 +20°C° 0.1 mm 4 mps 632 mmHg 57%
    12:00 +21°C° 0 mm 5 mps 631 mmHg 50%
    13:00 +21°C° 0 mm 5 mps 631 mmHg 44%
    14:00 +22°C° 0 mm 5 mps 630 mmHg 37%
    15:00 +21°C° 0 mm 4 mps 630 mmHg 39%
    16:00 +20°C° 0 mm 3 mps 630 mmHg 41%
    17:00 +19°C° 0 mm 2 mps 630 mmHg 43%
    18:00 +17°C° 0 mm 2 mps 629 mmHg 48%
    19:00 +15°C° 0 mm 1 mps 629 mmHg 52%
    20:00 +13°C° 0 mm 1 mps 629 mmHg 57%
    21:00 +13°C° 0 mm 1 mps 629 mmHg 57%
    22:00 +12°C° 0 mm 1 mps 629 mmHg 57%
    23:00 +12°C° 0 mm 1 mps 629 mmHg 56%

    26 April, Friday

    Time Temperature Precipitation Wind Pressure Humidity
    00:00 +12°C° 0 mm 1 mps 628 mmHg 57%
    01:00 +11°C° 0 mm 1 mps 628 mmHg 57%
    02:00 +11°C° 0 mm 1 mps 628 mmHg 57%
    03:00 +11°C° 0 mm 1 mps 628 mmHg 58%
    04:00 +10°C° 0 mm 1 mps 628 mmHg 58%
    05:00 +10°C° 0 mm 1 mps 628 mmHg 59%
    06:00 +12°C° 0 mm 1 mps 629 mmHg 55%
    07:00 +12°C° 0 mm 0 mps 629 mmHg 51%
    08:00 +13°C° 0 mm 0 mps 630 mmHg 48%
    09:00 +16°C° 0 mm 1 mps 631 mmHg 44%
    10:00 +19°C° 0 mm 1 mps 631 mmHg 40%
    11:00 +21°C° 0 mm 1 mps 632 mmHg 36%
    12:00 +21°C° 0 mm 2 mps 631 mmHg 35%
    13:00 +22°C° 0 mm 3 mps 631 mmHg 34%
    14:00 +22°C° 0 mm 3 mps 630 mmHg 33%
    15:00 +21°C° 0 mm 3 mps 630 mmHg 37%
    16:00 +20°C° 0 mm 3 mps 630 mmHg 41%
    17:00 +20°C° 0 mm 3 mps 630 mmHg 45%
    18:00 +18°C° 0 mm 2 mps 629 mmHg 51%
    19:00 +16°C° 0 mm 1 mps 629 mmHg 56%
    20:00 +13°C° 0 mm 0 mps 629 mmHg 62%
    21:00 +12°C° 0 mm 0 mps 629 mmHg 62%
    22:00 +12°C° 0 mm 0 mps 629 mmHg 63%
    23:00 +12°C° 0 mm 0 mps 629 mmHg 63%

    27 April, Saturday

    Time Temperature Precipitation Wind Pressure Humidity
    00:00 +11°C° 0 mm 0 mps 629 mmHg 64%
    01:00 +11°C° 0 mm 0 mps 629 mmHg 64%
    02:00 +12°C° 0 mm 1 mps 629 mmHg 65%
    03:00 +11°C° 0 mm 1 mps 629 mmHg 67%
    04:00 +11°C° 0 mm 1 mps 629 mmHg 69%
    05:00 +11°C° 0 mm 1 mps 629 mmHg 72%
    06:00 +11°C° 0 mm 0 mps 630 mmHg 65%
    07:00 +13°C° 0 mm 0 mps 631 mmHg 58%
    08:00 +15°C° 0 mm 0 mps 632 mmHg 51%
    09:00 +19°C° 0 mm 1 mps 632 mmHg 45%
    10:00 +21°C° 0 mm 1 mps 633 mmHg 38%
    11:00 +23°C° 0 mm 1 mps 633 mmHg 32%
    12:00 +24°C° 0 mm 2 mps 633 mmHg 30%
    13:00 +24°C° 0 mm 2 mps 633 mmHg 28%
    14:00 +25°C° 0 mm 2 mps 633 mmHg 26%
    15:00 +24°C° 0 mm 2 mps 632 mmHg 31%
    16:00 +23°C° 0 mm 2 mps 632 mmHg 35%
    17:00 +21°C° 0 mm 2 mps 632 mmHg 40%
    18:00 +20°C° 0 mm 1 mps 632 mmHg 44%
    19:00 +18°C° 0 mm 1 mps 632 mmHg 48%
    20:00 +14°C° 0 mm 0 mps 631 mmHg 52%
    21:00 +14°C° 0 mm 1 mps 631 mmHg 53%
    22:00 +14°C° 0 mm 1 mps 632 mmHg 53%
    23:00 +13°C° 0 mm 1 mps 632 mmHg 54%
    Show more